Weather History for Las Vegas, NM

Change the Weather History Date:

Wednesday, May 13, 2009

  Actual Average Record
Temperature  
Mean Temperature 68 °F -  
Max Temperature 82 °F 69 °F 87 °F (1984)
Min Temperature 51 °F 37 °F 26 °F (2014)
Cooling Degree Days 3    
Growing Degree Days 18 (Base 50)    
Moisture  
Dew Point 21 °F    
Average Humidity 19    
Maximum Humidity 48    
Minimum Humidity 9    
Precipitation  
Precipitation 0.00 in - - ()
Sea Level Pressure  
Sea Level Pressure 29.65 in    
Wind  
Wind Speed 9 mph (West)    
Max Wind Speed 21 mph    
Max Gust Speed 29 mph    
Visibility 10 miles    
Events      
Averages and records for this station are not official NWS values.
T = Trace of Precipitation, MM = Missing Value Source: NWS Daily Summary

Daily Weather History Graph

Daily Weather History Graph

Search for Another Location

Airport:

Trip Planner

Search our weather history database for the weather conditions in past years. The results will help you decide how hot, cold, wet, or windy it might be!

Date:

Astronomy

May. 13, 2009 Rise Set
Actual Time 5:56 AM MDT 7:57 PM MDT
Civil Twilight 5:28 AM MDT 8:25 PM MDT
Nautical Twilight 4:54 AM MDT 9:00 PM MDT
Astronomical Twilight 4:17 AM MDT 9:37 PM MDT
Moon No Moon Rise 9:14 AM MDT (5/13)
Length of Visible Light 14h 56m
Length of Day
14h 00m
Waning Gibbous, 81% of the Moon is Illuminated
May 13
Waning Gibbous
May 17
Last Quarter
May 24
New
May 30
First Quarter
Jun 7
Full

Hourly Weather History & Observations

Time (MDT) Temp. Dew Point Humidity Pressure Visibility Wind Dir Wind Speed Gust Speed Precip Events Conditions
12:53 AM 59.0 °F 14.0 °F 17% 29.54 in 10.0 mi West 8.1 mph - N/A   Clear
1:53 AM 60.1 °F 15.1 °F 17% 29.54 in 10.0 mi West 10.4 mph 17.3 mph N/A   Clear
2:53 AM 57.9 °F 17.1 °F 20% 29.55 in 10.0 mi West 6.9 mph - N/A   Clear
3:53 AM 55.0 °F 17.1 °F 23% 29.56 in 10.0 mi SSW 13.8 mph - N/A   Clear
4:53 AM 54.0 °F 18.0 °F 24% 29.58 in 10.0 mi SSW 8.1 mph - N/A   Clear
5:53 AM 55.0 °F 17.1 °F 23% 29.59 in 10.0 mi West 10.4 mph - N/A   Clear
6:53 AM 55.9 °F 19.9 °F 25% 29.63 in 10.0 mi SW 6.9 mph - N/A   Clear
7:53 AM 61.0 °F 21.9 °F 22% 29.66 in 10.0 mi SSW 4.6 mph - N/A   Clear
8:53 AM 66.0 °F 21.9 °F 19% 29.67 in 10.0 mi ESE 3.5 mph - N/A   Clear
9:53 AM 72.0 °F 19.9 °F 14% 29.65 in 10.0 mi Variable 5.8 mph 16.1 mph N/A   Clear
10:53 AM 75.9 °F 19.0 °F 12% 29.63 in 10.0 mi West 9.2 mph - N/A   Clear
11:53 AM 77.0 °F 16.0 °F 10% 29.62 in 10.0 mi Calm Calm - N/A   Clear
12:53 PM 80.1 °F 17.1 °F 9% 29.61 in 10.0 mi NW 8.1 mph 19.6 mph N/A   Clear
1:53 PM 80.1 °F 18.0 °F 10% 29.60 in 10.0 mi NW 10.4 mph 24.2 mph N/A   Clear
2:53 PM 82.0 °F 19.9 °F 10% 29.60 in 10.0 mi West 13.8 mph 21.9 mph N/A   Clear
3:53 PM 82.0 °F 21.0 °F 10% 29.60 in 10.0 mi West 17.3 mph 24.2 mph N/A   Partly Cloudy
4:53 PM 81.0 °F 19.0 °F 10% 29.59 in 10.0 mi Calm Calm - N/A   Partly Cloudy
5:29 PM 80.6 °F 19.4 °F 10% 29.94 in 10.0 mi WSW 11.5 mph 24.2 mph N/A   Clear
5:53 PM 81.0 °F 19.0 °F 10% 29.61 in 10.0 mi West 20.7 mph 28.8 mph N/A   Clear
6:53 PM 78.1 °F 18.0 °F 10% 29.63 in 10.0 mi West 15.0 mph 25.3 mph N/A   Clear
7:53 PM 69.1 °F 19.9 °F 15% 29.69 in 10.0 mi West 6.9 mph - N/A   Clear
8:53 PM 68.0 °F 19.0 °F 15% 29.72 in 10.0 mi NW 4.6 mph - N/A   Clear
9:53 PM 64.0 °F 37.9 °F 38% 29.78 in 10.0 mi East 20.7 mph 28.8 mph N/A   Clear
10:53 PM 57.0 °F 37.0 °F 47% 29.85 in 10.0 mi NE 17.3 mph - N/A   Clear
11:53 PM 51.1 °F 32.0 °F 48% 29.90 in 10.0 mi NE 16.1 mph - N/A   Clear